Home > Weather > Hadera > Past weeks

Flag for Israel Past Weather in Hadera, Israel — Yesterday and Last 2 Weeks

Now
82 °F

Passing clouds.


Feels Like: 88 °F
Forecast: 77 / 87 °F
Wind: 2 mph from North

Location: Dov Airport

Current Time: Jul 28, 2016 at 2:09:40 AM

Latest Report: Jul 27, 2016 at 10:50 PM


Visibility: N/A

Pressure: 29.74 "Hg

Humidity: 74%

Dew Point: 73 °F

Location of HaderaLocation

Past Weather in Hadera — Graph

°F

Hadera Temperature Yesterday

Maximum temperature yesterday: 88 °F (at 11:50 AM)
Minimum temperature yesterday: 77 °F (at 5:50 AM)
Average temperature yesterday: 84 °F

High & Low Weather Summary for the Past Weeks

 TemperatureHumidityPressure
High88 °F (Jul 13, 1:50 PM)89% (Jul 13, 5:50 AM)29.89 "Hg (Jul 13, 5:50 AM)
Low75 °F (Jul 16, 6:00 AM)49% (Jul 19, 3:50 PM)29.65 "Hg (Jul 19, 5:50 AM)
Average83 °F68%29.75 "Hg
* Reported Jul 12 10:50 PM — Jul 27 10:50 PM, Hadera, Weather by CustomWeather, © 2016

Note: Actual official high and low records may vary slightly from our data, if they occured in-between our weather recording intervals... More about our weather records

Advertising

Hadera Weather History for the Previous 24 Hours

Scroll right to see more
 ConditionsComfort  
Time TempWeatherWind HumidityBarometerVisibility
10:50 PM
Wed, Jul 27
82 °FPassing clouds.2 mph74%29.74 "HgN/A
9:50 PM82 °FPassing clouds.3 mph74%29.74 "HgN/A
8:50 PM82 °FPassing clouds.3 mph74%29.74 "HgN/A
7:50 PM82 °FScattered clouds.6 mph74%29.74 "HgN/A
6:50 PM84 °FPassing clouds.6 mph70%29.74 "HgN/A
5:50 PM86 °FScattered clouds.8 mph66%29.71 "HgN/A
4:50 PM86 °FScattered clouds.10 mph66%29.74 "HgN/A
3:50 PM86 °FPassing clouds.13 mph66%29.74 "HgN/A
2:50 PM86 °FSunny.12 mph66%29.74 "Hg10 mi
1:50 PM88 °FSunny.13 mph62%29.74 "Hg10 mi
12:50 PM86 °FSunny.13 mph66%29.74 "Hg10 mi
11:50 AM88 °FSunny.12 mph62%29.74 "Hg10 mi
10:50 AM86 °FPassing clouds.10 mph62%29.74 "HgN/A
9:50 AM84 °FPassing clouds.10 mph66%29.74 "HgN/A
8:50 AM84 °FScattered clouds.5 mph66%29.74 "HgN/A
7:50 AM81 °FPassing clouds.6 mph74%29.74 "HgN/A
6:50 AM77 °FPassing clouds.6 mph83%29.74 "HgN/A
5:50 AM77 °FPassing clouds.6 mph89%29.74 "HgN/A
Weather by CustomWeather, © 2016

See weather overviewHow to use our weather pages